Weather in Kukelevo

Russia / Khabarovsk Krai     47°45′33″N   134°46′19″E
temp.,
°C
wind,
m/s
gust,
m/s
humid.,
%
clouds,
%
prec.,
mm/h
press.,
hPa
HPBL,
m
27 february, sat
sat2701:00−21ssw23970 0.0 103520
04:00−22ssw23950 0.0 103520
07:00−22s23940 0.0 103620
10:00−17ssw12870 0.0 1035107
13:00−10ese127641 0.0 1033462
16:00−8s147567 0.0 1029509
19:00−9se3784100 0.0 1025158
22:00−10sse1186100 0.0 102333
28 february, sun
sun2801:00−7ssw31484100 0.0 1021510
04:00−5ssw71686100 0.1 1019632
07:00−3sw81496100 1.9 1018769
10:00−3w6993100 2.9 1019551
13:00−5w61085100 0.1 1021648
16:00−8wnw71273100 0.1 1022700
19:00−11w51180100 0.0 1025521
22:00−13w41182100 0.0 1027356
1 march, mon
mon101:00−17w3787100 0.0 1028156
04:00−22wsw348967 0.0 103035
07:00−23sw44890 0.0 103271
10:00−20wsw58850 0.0 1033293
13:00−16w58750 0.0 1033514
16:00−14w57680 0.0 1033858
19:00−19wsw34760 0.0 103338
22:00−21sw34830 0.0 103445
2 march, tue
tue201:00−22sw34815 0.0 103328
04:00−22ssw348442 0.0 103359
07:00−24sw1188100 0.0 103420
10:00−20w229265 0.0 1033116
13:00−17wnw23840 0.0 1032258
16:00−16wnw23730 0.0 1031330
19:00−22wsw11800 0.0 103120
22:00−23ssw22790 0.0 103220
3 march, wed
wed301:00−24ssw12810 0.0 103120
04:00−25s12830 0.0 103120
07:00−24se22840 0.0 103020
10:00−18se23800 0.0 1029151
13:00−11se356816 0.0 1025564
16:00−8ssw246858 0.0 1022581
19:00−12wsw1180100 0.0 102021
22:00−12s1296100 0.4 101948